Tracking 25195 objects as of 20-Jan-2022
HD Live streaming from Space Station
objects crossing your sky now

GALILEO 22 (2C8)

Track GALILEO 22 (2C8) now!
GALILEO 22 (2C8) is classified as:


NORAD ID: 43058
Int'l Code: 2017-079D
Perigee: 23,216.9 km
Apogee: 23,241.7 km
Inclination: 55.8 °
Period: 844.7 minutes
Semi major axis: 29600 km
RCS: Unknown
Launch date: December 12, 2017
Source: European Space Agency (ESA)
Launch site: FRENCH GUIANA (FRGUI)
aabbcc
Your satellite tracking list
Your tracking list is empty




NASA's NSSDC Master Catalog

Two Line Element Set (TLE):
1 43058U 17079D   22019.57750392  .00000044  00000-0  00000-0 0  9994
2 43058  55.8399 265.8212 0004186 304.3255  55.7309  1.70473940 25571
Source of the keplerian elements: AFSPC